Weather History for Tallahassee, FL

Change the Weather History Date:

Monday, January 2, 2012

  Actual Average Record
Temperature  
Mean Temperature 51 °F 51 °F  
Max Temperature 62 °F 63 °F 80 °F (1996)
Min Temperature 39 °F 39 °F 18 °F (1928)
Degree Days  
Heating Degree Days 14    
Month to date heating degree days 17  
Since 1 July heating degree days 503  
Cooling Degree Days 0    
Month to date cooling degree days 0  
Year to date cooling degree days 0  
Moisture  
Dew Point 25 °F    
Average Humidity 41    
Maximum Humidity 62    
Minimum Humidity 19    
Precipitation  
Precipitation 0.00 in 0.12 in 1.96 in (1967)
Month to date precipitation 0.00 0.24  
Year to date precipitation 0.00 0.24  
Sea Level Pressure  
Sea Level Pressure 30.25 in    
Wind  
Wind Speed 11 mph (NW)    
Max Wind Speed 22 mph    
Max Gust Speed 29 mph    
Visibility 10 miles    
Events      
T = Trace of Precipitation, MM = Missing Value Source: NWS Daily Summary

Daily Weather History Graph

Daily Weather History Graph

Search for Another Location

Airport:

Trip Planner

Search our weather history database for the weather conditions in past years. The results will help you decide how hot, cold, wet, or windy it might be!

Date:

Astronomy

Jan. 02, 2012 Rise Set
Actual Time 7:34 AM EST 5:48 PM EST
Civil Twilight 7:07 AM EST 6:14 PM EST
Nautical Twilight 6:38 AM EST 6:44 PM EST
Astronomical Twilight 6:08 AM EST 7:13 PM EST
Moon 12:54 PM EST (1/2) 1:38 AM EST (1/2)
Length of Visible Light 11h 06m
Length of Day
10h 13m
Waxing Gibbous, 63% of the Moon is Illuminated
Jan 2
Waxing Gibbous
Jan 9
Full
Jan 16
Last Quarter
Jan 23
New
Jan 30
First Quarter

Hourly Weather History & Observations

Time (EST) Temp. Windchill Dew Point Humidity Pressure Visibility Wind Dir Wind Speed Gust Speed Precip Events Conditions
12:53 AM 60.1 °F - 37.0 °F 42% 30.19 in 10.0 mi NNW 11.5 mph 20.7 mph N/A   Clear
1:53 AM 57.0 °F - 37.9 °F 49% 30.21 in 10.0 mi NW 9.2 mph - N/A   Clear
2:53 AM 55.0 °F - 33.1 °F 43% 30.21 in 10.0 mi NNW 12.7 mph 20.7 mph N/A   Clear
3:53 AM 53.1 °F - 32.0 °F 45% 30.21 in 10.0 mi NNW 11.5 mph - N/A   Clear
4:53 AM 51.1 °F - 32.0 °F 48% 30.22 in 10.0 mi NNW 10.4 mph - N/A   Clear
5:53 AM 48.9 °F - 32.0 °F 52% 30.24 in 10.0 mi NW 5.8 mph - N/A   Clear
6:53 AM 46.9 °F - 32.0 °F 56% 30.26 in 10.0 mi NW 4.6 mph - N/A   Clear
7:53 AM 44.1 °F 40.8 °F 32.0 °F 63% 30.27 in 10.0 mi NW 5.8 mph - N/A   Clear
8:53 AM 48.0 °F - 30.9 °F 52% 30.30 in 10.0 mi NNW 11.5 mph - N/A   Clear
9:53 AM 51.8 °F - 24.8 °F 35% 30.32 in 10.0 mi NNW 15.0 mph 20.7 mph N/A   Clear
10:53 AM 53.6 °F - 21.2 °F 28% 30.32 in 10.0 mi North 13.8 mph 24.2 mph N/A   Clear
11:53 AM 54.0 °F - 19.9 °F 26% 30.29 in 10.0 mi NNW 15.0 mph - N/A   Clear
12:53 PM 55.9 °F - 19.0 °F 24% 30.26 in 10.0 mi NW 15.0 mph 20.7 mph N/A   Clear
1:53 PM 57.2 °F - 19.4 °F 23% 30.25 in 10.0 mi WNW 16.1 mph 23.0 mph N/A   Clear
2:53 PM 57.0 °F - 17.1 °F 21% 30.24 in 10.0 mi NNW 16.1 mph 25.3 mph N/A   Clear
3:53 PM 57.0 °F - 16.0 °F 20% 30.23 in 10.0 mi NW 15.0 mph 25.3 mph N/A   Clear
4:53 PM 55.9 °F - 16.0 °F 21% 30.23 in 10.0 mi NW 15.0 mph 23.0 mph N/A   Clear
5:53 PM 48.9 °F - 19.9 °F 32% 30.21 in 10.0 mi West 4.6 mph - N/A   Clear
6:53 PM 41.0 °F 36.4 °F 24.1 °F 51% 30.24 in 10.0 mi West 6.9 mph - N/A   Clear
7:53 PM 41.0 °F 36.4 °F 23.0 °F 49% 30.25 in 10.0 mi West 6.9 mph - N/A   Clear
8:53 PM 41.0 °F 35.8 °F 23.0 °F 49% 30.26 in 10.0 mi West 8.1 mph - N/A   Clear
9:53 PM 41.0 °F 35.2 °F 23.0 °F 49% 30.26 in 10.0 mi West 9.2 mph - N/A   Clear
10:53 PM 43.0 °F 37.7 °F 19.9 °F 40% 30.26 in 10.0 mi West 9.2 mph - N/A   Clear
11:53 PM 45.0 °F 38.2 °F 15.1 °F 30% 30.28 in 10.0 mi WNW 15.0 mph 21.9 mph N/A   Clear